Year,Month,Day,Hour,Minute,Value (Times are PST for temperature in C)
2014,07,28,00,00,15.80
2014,07,28,00,01,15.70
2014,07,28,00,02,15.70
2014,07,28,00,03,15.70
2014,07,28,00,04,15.70
2014,07,28,00,05,15.70
2014,07,28,00,06,15.60
2014,07,28,00,07,15.60
2014,07,28,00,08,15.60
2014,07,28,00,09,15.60
2014,07,28,00,10,15.50
2014,07,28,00,11,15.50
2014,07,28,00,12,15.50
2014,07,28,00,13,15.40
2014,07,28,00,14,15.40
2014,07,28,00,15,15.40
2014,07,28,00,16,15.40
2014,07,28,00,17,15.40
2014,07,28,00,18,15.40
2014,07,28,00,19,15.30
2014,07,28,00,20,15.30
2014,07,28,00,21,15.30
2014,07,28,00,22,15.30
2014,07,28,00,23,15.30
2014,07,28,00,24,15.30
2014,07,28,00,25,15.30
2014,07,28,00,26,15.20
2014,07,28,00,27,15.20
2014,07,28,00,28,15.20
2014,07,28,00,29,15.20
2014,07,28,00,30,15.10
2014,07,28,00,31,15.10
2014,07,28,00,32,15.10
2014,07,28,00,33,15.00
2014,07,28,00,34,15.00
2014,07,28,00,35,15.00
2014,07,28,00,36,14.90
2014,07,28,00,37,14.90
2014,07,28,00,38,14.90
2014,07,28,00,39,14.90
2014,07,28,00,40,14.90
2014,07,28,00,41,14.80
2014,07,28,00,42,14.80
2014,07,28,00,43,14.80
2014,07,28,00,44,14.80
2014,07,28,00,45,14.80
2014,07,28,00,46,14.80
2014,07,28,00,47,14.70
2014,07,28,00,48,14.70
2014,07,28,00,49,14.70
2014,07,28,00,50,14.70
2014,07,28,00,51,14.70
2014,07,28,00,52,14.70
2014,07,28,00,53,14.70
2014,07,28,00,54,14.70
2014,07,28,00,55,14.70
2014,07,28,00,56,14.70
2014,07,28,00,57,14.70
2014,07,28,00,58,14.60
2014,07,28,00,59,14.60
2014,07,28,01,00,14.60
2014,07,28,01,01,14.60
2014,07,28,01,02,14.60
2014,07,28,01,03,14.60
2014,07,28,01,04,14.50
2014,07,28,01,05,14.50
2014,07,28,01,06,14.50
2014,07,28,01,07,14.50
2014,07,28,01,08,14.40
2014,07,28,01,09,14.40
2014,07,28,01,10,14.40
2014,07,28,01,11,14.40
2014,07,28,01,12,14.40
2014,07,28,01,13,14.40
2014,07,28,01,14,14.40
2014,07,28,01,15,14.40
2014,07,28,01,16,14.40
2014,07,28,01,17,14.30
2014,07,28,01,18,14.30
2014,07,28,01,19,14.30
2014,07,28,01,20,14.30
2014,07,28,01,21,14.30
2014,07,28,01,22,14.30
2014,07,28,01,23,14.30
2014,07,28,01,24,14.30
2014,07,28,01,25,14.30
2014,07,28,01,26,14.30
2014,07,28,01,27,14.20
2014,07,28,01,28,14.20
2014,07,28,01,29,14.20
2014,07,28,01,30,14.20
2014,07,28,01,31,14.20
2014,07,28,01,32,14.20
2014,07,28,01,33,14.20
2014,07,28,01,34,14.20
2014,07,28,01,35,14.10
2014,07,28,01,36,14.10
2014,07,28,01,37,14.10
2014,07,28,01,38,14.10
2014,07,28,01,39,14.10
2014,07,28,01,40,14.10
2014,07,28,01,41,14.10
2014,07,28,01,42,14.00
2014,07,28,01,43,14.00
2014,07,28,01,44,14.00
2014,07,28,01,45,14.00
2014,07,28,01,46,14.00
2014,07,28,01,47,13.90
2014,07,28,01,48,13.90
2014,07,28,01,49,13.90
2014,07,28,01,50,13.90
2014,07,28,01,51,13.90
2014,07,28,01,52,13.90
2014,07,28,01,53,13.90
2014,07,28,01,54,13.80
2014,07,28,01,55,13.80
2014,07,28,01,56,13.80
2014,07,28,01,57,13.80
2014,07,28,01,58,13.80
2014,07,28,01,59,13.80
2014,07,28,02,00,13.80
2014,07,28,02,01,13.80
2014,07,28,02,02,13.80
2014,07,28,02,03,13.70
2014,07,28,02,04,13.70
2014,07,28,02,05,13.70
2014,07,28,02,06,13.70
2014,07,28,02,07,13.70
2014,07,28,02,08,13.70
2014,07,28,02,09,13.70
2014,07,28,02,10,13.70
2014,07,28,02,11,13.70
2014,07,28,02,12,13.60
2014,07,28,02,13,13.60
2014,07,28,02,14,13.60
2014,07,28,02,15,13.60
2014,07,28,02,16,13.60
2014,07,28,02,17,13.60
2014,07,28,02,18,13.60
2014,07,28,02,19,13.50
2014,07,28,02,20,13.50
2014,07,28,02,21,13.50
2014,07,28,02,22,13.40
2014,07,28,02,23,13.40
2014,07,28,02,24,13.40
2014,07,28,02,25,13.40
2014,07,28,02,26,13.40
2014,07,28,02,27,13.40
2014,07,28,02,28,13.40
2014,07,28,02,29,13.40
2014,07,28,02,30,13.40
2014,07,28,02,31,13.40
2014,07,28,02,32,13.40
2014,07,28,02,33,13.30
2014,07,28,02,34,13.30
2014,07,28,02,35,13.30
2014,07,28,02,36,13.30
2014,07,28,02,37,13.30
2014,07,28,02,38,13.30
2014,07,28,02,39,13.30
2014,07,28,02,40,13.30
2014,07,28,02,41,13.30
2014,07,28,02,42,13.30
2014,07,28,02,43,13.30
2014,07,28,02,44,13.20
2014,07,28,02,45,13.20
2014,07,28,02,46,13.20
2014,07,28,02,47,13.20
2014,07,28,02,48,13.20
2014,07,28,02,49,13.20
2014,07,28,02,50,13.20
2014,07,28,02,51,13.20
2014,07,28,02,52,13.10
2014,07,28,02,53,13.10
2014,07,28,02,54,13.10
2014,07,28,02,55,13.10
2014,07,28,02,56,13.10
2014,07,28,02,57,13.10
2014,07,28,02,58,13.10
2014,07,28,02,59,13.00
2014,07,28,03,00,13.00
2014,07,28,03,01,13.00
2014,07,28,03,02,13.00
2014,07,28,03,03,13.00
2014,07,28,03,04,13.00
2014,07,28,03,05,12.90
2014,07,28,03,06,12.90
2014,07,28,03,07,12.90
2014,07,28,03,08,12.90
2014,07,28,03,09,12.90
2014,07,28,03,10,12.90
2014,07,28,03,11,12.90
2014,07,28,03,12,12.90
2014,07,28,03,13,12.90
2014,07,28,03,14,12.90
2014,07,28,03,15,12.90
2014,07,28,03,16,12.80
2014,07,28,03,17,12.80
2014,07,28,03,18,12.80
2014,07,28,03,19,12.80
2014,07,28,03,20,12.80
2014,07,28,03,21,12.80
2014,07,28,03,22,12.80
2014,07,28,03,23,12.80
2014,07,28,03,24,12.80
2014,07,28,03,25,12.80
2014,07,28,03,26,12.80
2014,07,28,03,27,12.70
2014,07,28,03,28,12.70
2014,07,28,03,29,12.70
2014,07,28,03,30,12.70
2014,07,28,03,31,12.70
2014,07,28,03,32,12.70
2014,07,28,03,33,12.70
2014,07,28,03,34,12.70
2014,07,28,03,35,12.70
2014,07,28,03,36,12.70
2014,07,28,03,37,12.70
2014,07,28,03,38,12.60
2014,07,28,03,39,12.60
2014,07,28,03,40,12.60
2014,07,28,03,41,12.60
2014,07,28,03,42,12.60
2014,07,28,03,43,12.60
2014,07,28,03,44,12.60
2014,07,28,03,45,12.60
2014,07,28,03,46,12.50
2014,07,28,03,47,12.50
2014,07,28,03,48,12.50
2014,07,28,03,49,12.50
2014,07,28,03,50,12.40
2014,07,28,03,51,12.40
2014,07,28,03,52,12.40
2014,07,28,03,53,12.40
2014,07,28,03,54,12.40
2014,07,28,03,55,12.40
2014,07,28,03,56,12.40
2014,07,28,03,57,12.40
2014,07,28,03,58,12.40
2014,07,28,03,59,12.40
2014,07,28,04,00,12.40
2014,07,28,04,01,12.40
2014,07,28,04,02,12.40
2014,07,28,04,03,12.30
2014,07,28,04,04,12.30
2014,07,28,04,05,12.30
2014,07,28,04,06,12.30
2014,07,28,04,07,12.30
2014,07,28,04,08,12.30
2014,07,28,04,09,12.30
2014,07,28,04,10,12.30
2014,07,28,04,11,12.30
2014,07,28,04,12,12.30
2014,07,28,04,13,12.20
2014,07,28,04,14,12.20
2014,07,28,04,15,12.20
2014,07,28,04,16,12.20
2014,07,28,04,17,12.20
2014,07,28,04,18,12.20
2014,07,28,04,19,12.20
2014,07,28,04,20,12.20
2014,07,28,04,21,12.20
2014,07,28,04,22,12.20
2014,07,28,04,23,12.10
2014,07,28,04,24,12.10
2014,07,28,04,25,12.10
2014,07,28,04,26,12.10
2014,07,28,04,27,12.10
2014,07,28,04,28,12.10
2014,07,28,04,29,12.10
2014,07,28,04,30,12.10
2014,07,28,04,31,12.10
2014,07,28,04,32,12.00
2014,07,28,04,33,12.00
2014,07,28,04,34,12.00
2014,07,28,04,35,12.00
2014,07,28,04,36,12.00
2014,07,28,04,37,12.00
2014,07,28,04,38,12.00
2014,07,28,04,39,11.90
2014,07,28,04,40,11.90
2014,07,28,04,41,11.90
2014,07,28,04,42,11.90
2014,07,28,04,43,11.90
2014,07,28,04,44,11.90
2014,07,28,04,45,11.90
2014,07,28,04,46,11.90
2014,07,28,04,47,11.90
2014,07,28,04,48,11.90
2014,07,28,04,49,11.90
2014,07,28,04,50,11.90
2014,07,28,04,51,11.90
2014,07,28,04,52,11.90
2014,07,28,04,53,11.90
2014,07,28,04,54,11.80
2014,07,28,04,55,11.80
2014,07,28,04,56,11.80
2014,07,28,04,57,11.80
2014,07,28,04,58,11.80
2014,07,28,04,59,11.80
2014,07,28,05,00,11.80
2014,07,28,05,01,11.80
2014,07,28,05,02,11.80
2014,07,28,05,03,11.80
2014,07,28,05,04,11.80
2014,07,28,05,05,11.80
2014,07,28,05,06,11.80
2014,07,28,05,07,11.80
2014,07,28,05,08,11.80
2014,07,28,05,09,11.80
2014,07,28,05,10,11.80
2014,07,28,05,11,11.80
2014,07,28,05,12,11.70
2014,07,28,05,13,11.70
2014,07,28,05,14,11.70
2014,07,28,05,15,11.70
2014,07,28,05,16,11.70
2014,07,28,05,17,11.70
2014,07,28,05,18,11.60
2014,07,28,05,19,11.60
2014,07,28,05,20,11.60
2014,07,28,05,21,11.60
2014,07,28,05,22,11.60
2014,07,28,05,23,11.60
2014,07,28,05,24,11.60
2014,07,28,05,25,11.60
2014,07,28,05,26,11.60
2014,07,28,05,27,11.60
2014,07,28,05,28,11.60
2014,07,28,05,29,11.50
2014,07,28,05,30,11.50
2014,07,28,05,31,11.50
2014,07,28,05,32,11.50
2014,07,28,05,33,11.50
2014,07,28,05,34,11.50
2014,07,28,05,35,11.50
2014,07,28,05,36,11.50
2014,07,28,05,37,11.50
2014,07,28,05,38,11.50
2014,07,28,05,39,11.50
2014,07,28,05,40,11.50
2014,07,28,05,41,11.40
2014,07,28,05,42,11.40
2014,07,28,05,43,11.40
2014,07,28,05,44,11.40
2014,07,28,05,45,11.40
2014,07,28,05,46,11.40
2014,07,28,05,47,11.40
2014,07,28,05,48,11.40
2014,07,28,05,49,11.40
2014,07,28,05,50,11.40
2014,07,28,05,51,11.40
2014,07,28,05,52,11.40
2014,07,28,05,53,11.40
2014,07,28,05,54,11.40
2014,07,28,05,55,11.30
2014,07,28,05,56,11.30
2014,07,28,05,57,11.30
2014,07,28,05,58,11.30
2014,07,28,05,59,11.30
2014,07,28,06,00,11.30
2014,07,28,06,01,11.30
2014,07,28,06,02,11.30
2014,07,28,06,03,11.30
2014,07,28,06,04,11.30
2014,07,28,06,05,11.30
2014,07,28,06,06,11.30
2014,07,28,06,07,11.30
2014,07,28,06,08,11.30
2014,07,28,06,09,11.30
2014,07,28,06,10,11.30
2014,07,28,06,11,11.20
2014,07,28,06,12,11.20
2014,07,28,06,13,11.20
2014,07,28,06,14,11.20
2014,07,28,06,15,11.20
2014,07,28,06,16,11.20
2014,07,28,06,17,11.20
2014,07,28,06,18,11.20
2014,07,28,06,19,11.20
2014,07,28,06,20,11.20
2014,07,28,06,21,11.20
2014,07,28,06,22,11.20
2014,07,28,06,23,11.20
2014,07,28,06,24,11.20
2014,07,28,06,25,11.20
2014,07,28,06,26,11.20
2014,07,28,06,27,11.20
2014,07,28,06,28,11.20
2014,07,28,06,29,11.20
2014,07,28,06,30,11.20
2014,07,28,06,31,11.20
2014,07,28,06,32,11.20
2014,07,28,06,33,11.20
2014,07,28,06,34,11.20
2014,07,28,06,35,11.20
2014,07,28,06,36,11.20
2014,07,28,06,37,11.20
2014,07,28,06,38,11.20
2014,07,28,06,39,11.20
2014,07,28,06,40,11.20
2014,07,28,06,41,11.20
2014,07,28,06,42,11.20
2014,07,28,06,43,11.20
2014,07,28,06,44,11.20
2014,07,28,06,45,11.20
2014,07,28,06,46,11.20
2014,07,28,06,47,11.20
2014,07,28,06,48,11.20
2014,07,28,06,49,11.20
2014,07,28,06,50,11.20
2014,07,28,06,51,11.20
2014,07,28,06,52,11.20
2014,07,28,06,53,11.20
2014,07,28,06,54,11.20
2014,07,28,06,55,11.20
2014,07,28,06,56,11.20
2014,07,28,06,57,11.20
2014,07,28,06,58,11.20
2014,07,28,06,59,11.20
2014,07,28,07,00,11.20
2014,07,28,07,01,11.20
2014,07,28,07,02,11.20
2014,07,28,07,03,11.20
2014,07,28,07,04,11.20
2014,07,28,07,05,11.20
2014,07,28,07,06,11.20
2014,07,28,07,07,11.20
2014,07,28,07,08,11.20
2014,07,28,07,09,11.20
2014,07,28,07,10,11.20
2014,07,28,07,11,11.30
2014,07,28,07,12,11.30
2014,07,28,07,13,11.30
2014,07,28,07,14,11.40
2014,07,28,07,15,11.40
2014,07,28,07,16,11.50
2014,07,28,07,17,11.50
2014,07,28,07,18,11.60
2014,07,28,07,19,11.70
2014,07,28,07,20,11.70
2014,07,28,07,21,11.80
2014,07,28,07,22,11.80
2014,07,28,07,23,11.90
2014,07,28,07,24,12.00
2014,07,28,07,25,12.00
2014,07,28,07,26,12.10
2014,07,28,07,27,12.20
2014,07,28,07,28,12.20
2014,07,28,07,29,12.30
2014,07,28,07,30,12.30
2014,07,28,07,31,12.40
2014,07,28,07,32,12.40
2014,07,28,07,33,12.50
2014,07,28,07,34,12.60
2014,07,28,07,35,12.60
2014,07,28,07,36,12.70
2014,07,28,07,37,12.80
2014,07,28,07,38,12.80
2014,07,28,07,39,12.90
2014,07,28,07,40,13.00
2014,07,28,07,41,13.10
2014,07,28,07,42,13.20
2014,07,28,07,43,13.30
2014,07,28,07,44,13.40
2014,07,28,07,45,13.50
2014,07,28,07,46,13.60
2014,07,28,07,47,13.70
2014,07,28,07,48,13.80
2014,07,28,07,49,13.80
2014,07,28,07,50,13.90
2014,07,28,07,51,14.00
2014,07,28,07,52,14.00
2014,07,28,07,53,14.10
2014,07,28,07,54,14.20
2014,07,28,07,55,14.20
2014,07,28,07,56,14.30
2014,07,28,07,57,14.40
2014,07,28,07,58,14.50
2014,07,28,07,59,14.50
2014,07,28,08,00,14.60
2014,07,28,08,01,14.70
2014,07,28,08,02,14.80
2014,07,28,08,03,14.80
2014,07,28,08,04,14.90
2014,07,28,08,05,14.90
2014,07,28,08,06,14.90
2014,07,28,08,07,14.90
2014,07,28,08,08,14.90
2014,07,28,08,09,14.90
2014,07,28,08,10,14.90
2014,07,28,08,11,14.90
2014,07,28,08,12,14.90
2014,07,28,08,13,14.90
2014,07,28,08,14,14.90
2014,07,28,08,15,15.00
2014,07,28,08,16,15.10
2014,07,28,08,17,15.20
2014,07,28,08,18,15.40
2014,07,28,08,19,15.50
2014,07,28,08,20,15.70
2014,07,28,08,21,15.80
2014,07,28,08,22,15.90
2014,07,28,08,23,16.00
2014,07,28,08,24,16.10
2014,07,28,08,25,16.20
2014,07,28,08,26,16.20
2014,07,28,08,27,16.30
2014,07,28,08,28,16.40
2014,07,28,08,29,16.40
2014,07,28,08,30,16.50
2014,07,28,08,31,16.60
2014,07,28,08,32,16.70
2014,07,28,08,33,16.70
2014,07,28,08,34,16.70
2014,07,28,08,35,16.60
2014,07,28,08,36,16.50
2014,07,28,08,37,16.50
2014,07,28,08,38,16.50
2014,07,28,08,39,16.50
2014,07,28,08,40,16.50
2014,07,28,08,41,16.50
2014,07,28,08,42,16.50
2014,07,28,08,43,16.50
2014,07,28,08,44,16.50
2014,07,28,08,45,16.50
2014,07,28,08,46,16.60
2014,07,28,08,47,16.70
2014,07,28,08,48,16.80
2014,07,28,08,49,16.90
2014,07,28,08,50,17.00
2014,07,28,08,51,17.10
2014,07,28,08,52,17.10
2014,07,28,08,53,17.20
2014,07,28,08,54,17.20
2014,07,28,08,55,17.30
2014,07,28,08,56,17.40
2014,07,28,08,57,17.50
2014,07,28,08,58,17.50
2014,07,28,08,59,17.60
2014,07,28,09,00,17.70
2014,07,28,09,01,17.70
2014,07,28,09,02,17.80
2014,07,28,09,03,17.80
2014,07,28,09,04,17.80
2014,07,28,09,05,17.80
2014,07,28,09,06,17.80
2014,07,28,09,07,17.80
2014,07,28,09,08,17.80
2014,07,28,09,09,17.80
2014,07,28,09,10,17.80
2014,07,28,09,11,17.80
2014,07,28,09,12,17.90
2014,07,28,09,13,18.00
2014,07,28,09,14,18.10
2014,07,28,09,15,18.20
2014,07,28,09,16,18.30
2014,07,28,09,17,18.30
2014,07,28,09,18,18.40
2014,07,28,09,19,18.40
2014,07,28,09,20,18.40
2014,07,28,09,21,18.40
2014,07,28,09,22,18.40
2014,07,28,09,23,18.40
2014,07,28,09,24,18.40
2014,07,28,09,25,18.40
2014,07,28,09,26,18.30
2014,07,28,09,27,18.30
2014,07,28,09,28,18.30
2014,07,28,09,29,18.40
2014,07,28,09,30,18.40
2014,07,28,09,31,18.40
2014,07,28,09,32,18.40
2014,07,28,09,33,18.50
2014,07,28,09,34,18.60
2014,07,28,09,35,18.60
2014,07,28,09,36,18.70
2014,07,28,09,37,18.70
2014,07,28,09,38,18.80
2014,07,28,09,39,18.90
2014,07,28,09,40,18.90
2014,07,28,09,41,19.00
2014,07,28,09,42,19.10
2014,07,28,09,43,19.20
2014,07,28,09,44,19.20
2014,07,28,09,45,19.30
2014,07,28,09,46,19.30
2014,07,28,09,47,19.50
2014,07,28,09,48,19.50
2014,07,28,09,49,19.40
2014,07,28,09,50,19.40
2014,07,28,09,51,19.30
2014,07,28,09,52,19.30
2014,07,28,09,53,19.20
2014,07,28,09,54,19.20
2014,07,28,09,55,19.30
2014,07,28,09,56,19.30
2014,07,28,09,57,19.40
2014,07,28,09,58,19.50
2014,07,28,09,59,19.60
2014,07,28,10,00,19.70
2014,07,28,10,01,19.80
2014,07,28,10,02,19.80
2014,07,28,10,03,19.80
2014,07,28,10,04,19.80
2014,07,28,10,05,19.80
2014,07,28,10,06,19.80
2014,07,28,10,07,19.80
2014,07,28,10,08,19.80
2014,07,28,10,09,19.80
2014,07,28,10,10,19.90
2014,07,28,10,11,19.90
2014,07,28,10,12,19.90
2014,07,28,10,13,19.90
2014,07,28,10,14,20.00
2014,07,28,10,15,20.00
2014,07,28,10,16,20.00
2014,07,28,10,17,20.10
2014,07,28,10,18,20.10
2014,07,28,10,19,20.10
2014,07,28,10,20,20.10
2014,07,28,10,21,20.10
2014,07,28,10,22,20.10
2014,07,28,10,23,20.20
2014,07,28,10,24,20.20
2014,07,28,10,25,20.20
2014,07,28,10,26,20.30
2014,07,28,10,27,20.30
2014,07,28,10,28,20.30
2014,07,28,10,29,20.30
2014,07,28,10,30,20.40
2014,07,28,10,31,20.50
2014,07,28,10,32,20.60
2014,07,28,10,33,20.70
2014,07,28,10,34,20.90
2014,07,28,10,35,21.00
2014,07,28,10,36,21.10
2014,07,28,10,37,21.20
2014,07,28,10,38,21.30
2014,07,28,10,39,21.40
2014,07,28,10,40,21.40
2014,07,28,10,41,21.50
2014,07,28,10,42,21.60
2014,07,28,10,43,21.70
2014,07,28,10,44,21.70
2014,07,28,10,45,21.70
2014,07,28,10,46,21.80
2014,07,28,10,47,21.80
2014,07,28,10,48,21.90
2014,07,28,10,49,21.90
2014,07,28,10,50,22.00
2014,07,28,10,51,22.10
2014,07,28,10,52,22.20
2014,07,28,10,53,22.20
2014,07,28,10,54,22.30
2014,07,28,10,55,22.40
2014,07,28,10,56,22.50
2014,07,28,10,57,22.60
2014,07,28,10,58,22.70
2014,07,28,10,59,22.80
2014,07,28,11,00,22.90
2014,07,28,11,01,22.90
2014,07,28,11,02,23.00
2014,07,28,11,03,23.00
2014,07,28,11,04,23.00
2014,07,28,11,05,23.10
2014,07,28,11,06,23.10
2014,07,28,11,07,23.20
2014,07,28,11,08,23.20
2014,07,28,11,09,23.20
2014,07,28,11,10,23.20
2014,07,28,11,11,23.20
2014,07,28,11,12,23.30
2014,07,28,11,13,23.40
2014,07,28,11,14,23.50
2014,07,28,11,15,23.60
2014,07,28,11,16,23.70
2014,07,28,11,17,23.80
2014,07,28,11,18,23.80
2014,07,28,11,19,23.80
2014,07,28,11,20,23.80
2014,07,28,11,21,23.70
2014,07,28,11,22,23.70
2014,07,28,11,23,23.70
2014,07,28,11,24,23.70
2014,07,28,11,25,23.80
2014,07,28,11,26,23.80
2014,07,28,11,27,23.90
2014,07,28,11,28,23.90
2014,07,28,11,29,24.00
2014,07,28,11,30,24.10
2014,07,28,11,31,24.10
2014,07,28,11,32,24.10
2014,07,28,11,33,24.20
2014,07,28,11,34,24.20
2014,07,28,11,35,24.30
2014,07,28,11,36,24.40
2014,07,28,11,37,24.50
2014,07,28,11,38,24.50
2014,07,28,11,39,24.60
2014,07,28,11,40,24.60
2014,07,28,11,41,24.60
2014,07,28,11,42,24.50
2014,07,28,11,43,24.50
2014,07,28,11,44,24.50
2014,07,28,11,45,24.50
2014,07,28,11,46,24.50
2014,07,28,11,47,24.50
2014,07,28,11,48,24.50
2014,07,28,11,49,24.50
2014,07,28,11,50,24.50
2014,07,28,11,51,24.50
2014,07,28,11,52,24.60
2014,07,28,11,53,24.60
2014,07,28,11,54,24.70
2014,07,28,11,55,24.80
2014,07,28,11,56,24.90
2014,07,28,11,57,25.10
2014,07,28,11,58,25.20
2014,07,28,11,59,25.30
2014,07,28,12,00,25.30
2014,07,28,12,01,25.40
2014,07,28,12,02,25.40
2014,07,28,12,03,25.40
2014,07,28,12,04,25.40
2014,07,28,12,05,25.30
2014,07,28,12,06,25.30
2014,07,28,12,07,25.30
2014,07,28,12,08,25.30
2014,07,28,12,09,25.30
2014,07,28,12,10,25.40
2014,07,28,12,11,25.40
2014,07,28,12,12,25.50
2014,07,28,12,13,25.50
2014,07,28,12,14,25.50
2014,07,28,12,15,25.60
2014,07,28,12,16,25.60
2014,07,28,12,17,25.60
2014,07,28,12,18,25.60
2014,07,28,12,19,25.60
2014,07,28,12,20,25.60
2014,07,28,12,21,25.60
2014,07,28,12,22,25.60
2014,07,28,12,23,25.60
2014,07,28,12,24,25.70
2014,07,28,12,25,25.80
2014,07,28,12,26,25.80
2014,07,28,12,27,25.90
2014,07,28,12,28,25.90
2014,07,28,12,29,26.00
2014,07,28,12,30,26.10
2014,07,28,12,31,26.10
2014,07,28,12,32,26.20
2014,07,28,12,33,26.20
2014,07,28,12,34,26.30
2014,07,28,12,35,26.30
2014,07,28,12,36,26.40
2014,07,28,12,37,26.40
2014,07,28,12,38,26.40
2014,07,28,12,39,26.50
2014,07,28,12,40,26.50
2014,07,28,12,41,26.60
2014,07,28,12,42,26.60
2014,07,28,12,43,26.60
2014,07,28,12,44,26.60
2014,07,28,12,45,26.60
2014,07,28,12,46,26.60
2014,07,28,12,47,26.60
2014,07,28,12,48,26.60
2014,07,28,12,49,26.60
2014,07,28,12,50,26.70
2014,07,28,12,51,26.80
2014,07,28,12,52,26.80
2014,07,28,12,53,26.80
2014,07,28,12,54,26.80
2014,07,28,12,55,26.70
2014,07,28,12,56,26.70
2014,07,28,12,57,26.70
2014,07,28,12,58,26.70
2014,07,28,12,59,26.70
2014,07,28,13,00,26.70
2014,07,28,13,01,26.80
2014,07,28,13,02,26.90
2014,07,28,13,03,27.00
2014,07,28,13,04,27.20
2014,07,28,13,05,27.20
2014,07,28,13,06,27.30
2014,07,28,13,07,27.20
2014,07,28,13,08,27.20
2014,07,28,13,09,27.20
2014,07,28,13,10,27.20
2014,07,28,13,11,27.20
2014,07,28,13,12,27.20
2014,07,28,13,13,27.20
2014,07,28,13,14,27.20
2014,07,28,13,15,27.30
2014,07,28,13,16,27.30
2014,07,28,13,17,27.30
2014,07,28,13,18,27.40
2014,07,28,13,19,27.40
2014,07,28,13,20,27.40
2014,07,28,13,21,27.40
2014,07,28,13,22,27.40
2014,07,28,13,23,27.50
2014,07,28,13,24,27.50
2014,07,28,13,25,27.50
2014,07,28,13,26,27.50
2014,07,28,13,27,27.60
2014,07,28,13,28,27.60
2014,07,28,13,29,27.60
2014,07,28,13,30,27.70
2014,07,28,13,31,27.80
2014,07,28,13,32,27.80
2014,07,28,13,33,27.80
2014,07,28,13,34,27.90
2014,07,28,13,35,28.00
2014,07,28,13,36,28.00
2014,07,28,13,37,28.10
2014,07,28,13,38,28.20
2014,07,28,13,39,28.20
2014,07,28,13,40,28.30
2014,07,28,13,41,28.20
2014,07,28,13,42,28.10
2014,07,28,13,43,28.00
2014,07,28,13,44,28.00
2014,07,28,13,45,28.00
2014,07,28,13,46,28.00
2014,07,28,13,47,28.10
2014,07,28,13,48,28.10
2014,07,28,13,49,28.20
2014,07,28,13,50,28.20
2014,07,28,13,51,28.20
2014,07,28,13,52,28.20
2014,07,28,13,53,28.20
2014,07,28,13,54,28.30
2014,07,28,13,55,28.30
2014,07,28,13,56,28.30
2014,07,28,13,57,28.40
2014,07,28,13,58,28.40
2014,07,28,13,59,28.50
2014,07,28,14,00,28.50
2014,07,28,14,01,28.50
2014,07,28,14,02,28.50
2014,07,28,14,03,28.60
2014,07,28,14,04,28.60
2014,07,28,14,05,28.60
2014,07,28,14,06,28.60
2014,07,28,14,07,28.60
2014,07,28,14,08,28.60
2014,07,28,14,09,28.70
2014,07,28,14,10,28.70
2014,07,28,14,11,28.70
2014,07,28,14,12,28.70
2014,07,28,14,13,28.70
2014,07,28,14,14,28.80
2014,07,28,14,15,28.90
2014,07,28,14,16,28.90
2014,07,28,14,17,28.90
2014,07,28,14,18,28.90
2014,07,28,14,19,28.90
2014,07,28,14,20,29.00
2014,07,28,14,21,29.10
2014,07,28,14,22,29.20
2014,07,28,14,23,29.30
2014,07,28,14,24,29.30
2014,07,28,14,25,29.30
2014,07,28,14,26,29.30
2014,07,28,14,27,29.30
2014,07,28,14,28,29.30
2014,07,28,14,29,29.30
2014,07,28,14,30,29.30
2014,07,28,14,31,29.40
2014,07,28,14,32,29.40
2014,07,28,14,33,29.40
2014,07,28,14,34,29.40
2014,07,28,14,35,29.50
2014,07,28,14,36,29.50
2014,07,28,14,37,29.60
2014,07,28,14,38,29.60
2014,07,28,14,39,29.60
2014,07,28,14,40,29.70
2014,07,28,14,41,29.70
2014,07,28,14,42,29.80
2014,07,28,14,43,29.80
2014,07,28,14,44,29.80
2014,07,28,14,45,29.80
2014,07,28,14,46,29.90
2014,07,28,14,47,30.00
2014,07,28,14,48,30.00
2014,07,28,14,49,30.10
2014,07,28,14,50,30.10
2014,07,28,14,51,30.10
2014,07,28,14,52,30.00
2014,07,28,14,53,29.90
2014,07,28,14,54,29.90
2014,07,28,14,55,29.80
2014,07,28,14,56,29.80
2014,07,28,14,57,29.80
2014,07,28,14,58,29.80
2014,07,28,14,59,29.80
2014,07,28,15,00,29.80
2014,07,28,15,01,29.80
2014,07,28,15,02,29.80
2014,07,28,15,03,29.80
2014,07,28,15,04,29.80
2014,07,28,15,05,29.80
2014,07,28,15,06,29.80
2014,07,28,15,07,29.80
2014,07,28,15,08,29.80
2014,07,28,15,09,29.80
2014,07,28,15,10,29.90
2014,07,28,15,11,29.90
2014,07,28,15,12,29.90
2014,07,28,15,13,30.00
2014,07,28,15,14,30.00
2014,07,28,15,15,30.00
2014,07,28,15,16,30.00
2014,07,28,15,17,30.00
2014,07,28,15,18,29.90
2014,07,28,15,19,29.90
2014,07,28,15,20,29.90
2014,07,28,15,21,30.00
2014,07,28,15,22,30.00
2014,07,28,15,23,30.00
2014,07,28,15,24,30.00
2014,07,28,15,25,30.00
2014,07,28,15,26,29.90
2014,07,28,15,27,29.90
2014,07,28,15,28,29.80
2014,07,28,15,29,29.80
2014,07,28,15,30,29.80
2014,07,28,15,31,29.80
2014,07,28,15,32,29.80
2014,07,28,15,33,29.80
2014,07,28,15,34,29.70
2014,07,28,15,35,29.70
2014,07,28,15,36,29.60
2014,07,28,15,37,29.60
2014,07,28,15,38,29.60
2014,07,28,15,39,29.50
2014,07,28,15,40,29.50
2014,07,28,15,41,29.40
2014,07,28,15,42,29.30
2014,07,28,15,43,29.30
2014,07,28,15,44,29.30
2014,07,28,15,45,29.20
2014,07,28,15,46,29.20
2014,07,28,15,47,29.10
2014,07,28,15,48,29.10
2014,07,28,15,49,29.00
2014,07,28,15,50,28.90
2014,07,28,15,51,28.90
2014,07,28,15,52,28.90
2014,07,28,15,53,28.90
2014,07,28,15,54,29.00
2014,07,28,15,55,29.10
2014,07,28,15,56,29.10
2014,07,28,15,57,29.00
2014,07,28,15,58,29.00
2014,07,28,15,59,28.90
2014,07,28,16,00,28.90
2014,07,28,16,01,28.80
2014,07,28,16,02,28.80
2014,07,28,16,03,28.80
2014,07,28,16,04,28.80
2014,07,28,16,05,28.80
2014,07,28,16,06,28.80
2014,07,28,16,07,28.70
2014,07,28,16,08,28.70
2014,07,28,16,09,28.70
2014,07,28,16,10,28.80
2014,07,28,16,11,28.80
2014,07,28,16,12,28.80
2014,07,28,16,13,28.80
2014,07,28,16,14,28.70
2014,07,28,16,15,28.70
2014,07,28,16,16,28.70
2014,07,28,16,17,28.60
2014,07,28,16,18,28.60
2014,07,28,16,19,28.70
2014,07,28,16,20,28.60
2014,07,28,16,21,28.60
2014,07,28,16,22,28.60
2014,07,28,16,23,28.50
2014,07,28,16,24,28.50
2014,07,28,16,25,28.50
2014,07,28,16,26,28.50
2014,07,28,16,27,28.50
2014,07,28,16,28,28.50
2014,07,28,16,29,28.60
2014,07,28,16,30,28.60
2014,07,28,16,31,28.60
2014,07,28,16,32,28.60
2014,07,28,16,33,28.60
2014,07,28,16,34,28.60
2014,07,28,16,35,28.50
2014,07,28,16,36,28.50
2014,07,28,16,37,28.40
2014,07,28,16,38,28.40
2014,07,28,16,39,28.40
2014,07,28,16,40,28.40
2014,07,28,16,41,28.40
2014,07,28,16,42,28.40
2014,07,28,16,43,28.40
2014,07,28,16,44,28.30
2014,07,28,16,45,28.30
2014,07,28,16,46,28.30
2014,07,28,16,47,28.40
2014,07,28,16,48,28.40
2014,07,28,16,49,28.40
2014,07,28,16,50,28.40
2014,07,28,16,51,28.40
2014,07,28,16,52,28.40
2014,07,28,16,53,28.40
2014,07,28,16,54,28.40
2014,07,28,16,55,28.40
2014,07,28,16,56,28.30
2014,07,28,16,57,28.30
2014,07,28,16,58,28.30
2014,07,28,16,59,28.30
2014,07,28,17,00,28.30
2014,07,28,17,01,28.30
2014,07,28,17,02,28.30
2014,07,28,17,03,28.30
2014,07,28,17,04,28.30
2014,07,28,17,05,28.30
2014,07,28,17,06,28.30
2014,07,28,17,07,28.30
2014,07,28,17,08,28.30
2014,07,28,17,09,28.40
2014,07,28,17,10,28.40
2014,07,28,17,11,28.40
2014,07,28,17,12,28.40
2014,07,28,17,13,28.50
2014,07,28,17,14,28.50
2014,07,28,17,15,28.60
2014,07,28,17,16,28.70
2014,07,28,17,17,28.80
2014,07,28,17,18,28.80
2014,07,28,17,19,28.80